Location: Baia Mare
(47.6567°N, 23.5850°E)
Time: 14:01:55
(UTC+03:00)

ISS - Pass Details

Date: 21 July 2019
Orbit: 409 x 418 km, 51.6° (Epoch: 21 July)

Event Time Altitude Azimuth Distance (km) Brightness Sun altitude
Rises 23:12:59 0° 269° (W) 2,352 0.5 -15.1°
Reaches altitude 10° 23:15:08 10° 276° (W) 1,488 -0.4 -15.3°
Maximum altitude 23:18:22 45° 350° (N) 580 -2.6 -15.6°
Drops below altitude 10° 23:21:35 10° 65° (ENE) 1,485 -1.0 -15.9°
Sets 23:23:44 0° 72° (ENE) 2,347 -0.1 -16.1°
